Location: Chassagnes
(44.4047°N, 4.1657°E)
Time: 13:07:56
(UTC+00:00)

Cosmos 44 - Pass Details

Date: 27 October 2020
Orbit: 578 x 784 km, 65.1° (Epoch: 23 November)

Event Time Altitude Azimuth Distance (km) Brightness Sun altitude
Rises 17:46:50 0° 224° (SW) 2,853 7.3 -12.6°
Reaches altitude 10° 17:49:03 10° 229° (SW) 1,978 6.5 -13.0°
Maximum altitude 17:53:28 57° 309° (NW) 758 3.7 -13.8°
Drops below altitude 10° 17:58:10 10° 28° (NNE) 2,115 5.5 -14.6°
Enters shadow 17:59:02 - 30° (NNE) 2,446 5.8 -14.8°
